| time (UTC) | temp C | wind direction | speed KPH | gust KPH | rain 1hr cm | rain 24hr cm | rain mn cm | humidity % | barometer mb |
| 20260505230504 | 22 | 192 | 1.6 | 11.3 | 0.00 | 0.00 | 0.00 | 56 | 1016.6 |
| 20260505230010 | 22 | 209 | 4.8 | 11.3 | 0.00 | 0.00 | 0.00 | 56 | 1016.7 |
| 20260505225505 | 23 | 123 | 1.6 | 6.4 | 0.00 | 0.00 | 0.00 | 56 | 1016.7 |
| 20260505225006 | 23 | 54 | 3.2 | 8.0 | 0.00 | 0.00 | 0.00 | 57 | 1016.8 |
| 20260505224518 | 23 | 111 | 1.6 | 9.7 | 0.00 | 0.00 | 0.00 | 57 | 1016.9 |
| 20260505224007 | 23 | 116 | 3.2 | 16.1 | 0.00 | 0.00 | 0.00 | 57 | 1016.7 |
| 20260505223510 | 23 | 323 | 4.8 | 16.1 | 0.00 | 0.00 | 0.00 | 55 | 1016.6 |
| 20260505223021 | 23 | 136 | 4.8 | 14.5 | 0.00 | 0.00 | 0.00 | 56 | 1016.6 |
| 20260505222513 | 23 | 126 | 3.2 | 14.5 | 0.00 | 0.00 | 0.00 | 55 | 1016.7 |
| 20260505222009 | 23 | 116 | 3.2 | 12.9 | 0.00 | 0.00 | 0.00 | 54 | 1016.7 |
| 20260505221524 | 24 | 106 | 3.2 | 9.7 | 0.00 | 0.00 | 0.00 | 55 | 1016.8 |
| 20260505221013 | 24 | 137 | 1.6 | 9.7 | 0.00 | 0.00 | 0.00 | 54 | 1016.7 |
| 20260505220507 | 24 | 185 | 3.2 | 9.7 | 0.00 | 0.00 | 0.00 | 54 | 1016.7 |
| 20260505220028 | 24 | 92 | 3.2 | 9.7 | 0.00 | 0.00 | 0.00 | 54 | 1016.7 |
| 20260505215504 | 24 | 90 | 3.2 | 8.0 | 0.00 | 0.00 | 0.00 | 54 | 1016.9 |
| 20260505215005 | 24 | 158 | 0.0 | 11.3 | 0.00 | 0.00 | 0.00 | 53 | 1017.0 |
| 20260505214517 | 24 | 74 | 3.2 | 11.3 | 0.00 | 0.00 | 0.00 | 53 | 1016.9 |
| 20260505214004 | 25 | 86 | 1.6 | 6.4 | 0.00 | 0.00 | 0.00 | 52 | 1016.8 |
| 20260505213507 | 25 | 75 | 1.6 | 16.1 | 0.00 | 0.00 | 0.00 | 52 | 1016.8 |
| 20260505213021 | 25 | 136 | 4.8 | 16.1 | 0.00 | 0.00 | 0.00 | 50 | 1016.9 |
| 20260505212511 | 25 | 99 | 3.2 | 11.3 | 0.00 | 0.00 | 0.00 | 49 | 1017.0 |
| 20260505212007 | 26 | 72 | 1.6 | 11.3 | 0.00 | 0.00 | 0.00 | 49 | 1017.1 |
| 20260505211522 | 26 | 121 | 3.2 | 6.4 | 0.00 | 0.00 | 0.00 | 50 | 1017.0 |
| 20260505211008 | 26 | 69 | 1.6 | 8.0 | 0.00 | 0.00 | 0.00 | 49 | 1017.0 |
| 20260505210510 | 26 | 273 | 1.6 | 8.0 | 0.00 | 0.00 | 0.00 | 48 | 1016.9 |
| 20260505210026 | 26 | 94 | 3.2 | 12.9 | 0.00 | 0.00 | 0.00 | 49 | 1016.9 |
| 20260505205507 | 26 | 146 | 4.8 | 12.9 | 0.00 | 0.00 | 0.00 | 47 | 1016.9 |
| 20260505205012 | 26 | 124 | 4.8 | 16.1 | 0.00 | 0.00 | 0.00 | 47 | 1016.9 |
| 20260505204512 | 26 | 122 | 3.2 | 16.1 | 0.00 | 0.00 | 0.00 | 49 | 1016.7 |
| 20260505204010 | 26 | 124 | 6.4 | 16.1 | 0.00 | 0.00 | 0.00 | 48 | 1016.7 |
| 20260505203505 | 26 | 134 | 3.2 | 12.9 | 0.00 | 0.00 | 0.00 | 49 | 1016.7 |
| 20260505203023 | 26 | 92 | 4.8 | 12.9 | 0.00 | 0.00 | 0.00 | 46 | 1016.8 |
| 20260505202508 | 27 | 67 | 1.6 | 11.3 | 0.00 | 0.00 | 0.00 | 48 | 1016.8 |
| 20260505202007 | 26 | 190 | 3.2 | 12.9 | 0.00 | 0.00 | 0.00 | 45 | 1016.9 |
| 20260505201525 | 26 | 195 | 1.6 | 12.9 | 0.00 | 0.00 | 0.00 | 48 | 1017.0 |
| 20260505201010 | 26 | 278 | 1.6 | 17.7 | 0.00 | 0.00 | 0.00 | 46 | 1017.0 |
| 20260505200506 | 26 | 231 | 1.6 | 17.7 | 0.00 | 0.00 | 0.00 | 46 | 1017.0 |
| 20260505200005 | 26 | 254 | 3.2 | 19.3 | 0.00 | 0.00 | 0.00 | 46 | 1017.0 |
| 20260505195506 | 26 | 238 | 3.2 | 19.3 | 0.00 | 0.00 | 0.00 | 45 | 1017.2 |
| 20260505195004 | 26 | 198 | 1.6 | 14.5 | 0.00 | 0.00 | 0.00 | 44 | 1017.3 |
| 20260505194513 | 26 | 130 | 3.2 | 16.1 | 0.00 | 0.00 | 0.00 | 46 | 1017.4 |
| 20260505194005 | 27 | 191 | 1.6 | 16.1 | 0.00 | 0.00 | 0.00 | 46 | 1017.4 |
| 20260505193505 | 26 | 296 | 6.4 | 14.5 | 0.00 | 0.00 | 0.00 | 45 | 1017.6 |
| 20260505193016 | 26 | 130 | 3.2 | 14.5 | 0.00 | 0.00 | 0.00 | 47 | 1017.7 |
| 20260505192508 | 26 | 98 | 8.0 | 16.1 | 0.00 | 0.00 | 0.00 | 46 | 1017.9 |
| 20260505192008 | 26 | 9 | 1.6 | 16.1 | 0.00 | 0.00 | 0.00 | 48 | 1017.9 |
| 20260505191520 | 26 | 134 | 4.8 | 14.5 | 0.00 | 0.00 | 0.00 | 49 | 1017.9 |
| 20260505191011 | 26 | 219 | 1.6 | 12.9 | 0.00 | 0.00 | 0.00 | 48 | 1018.1 |
| 20260505190509 | 26 | 131 | 3.2 | 14.5 | 0.00 | 0.00 | 0.00 | 47 | 1018.1 |
| 20260505190024 | 26 | 91 | 3.2 | 14.5 | 0.00 | 0.00 | 0.00 | 49 | 1018.2 |
| 20260505185510 | 26 | 158 | 4.8 | 16.1 | 0.00 | 0.00 | 0.00 | 48 | 1018.2 |
| 20260505185003 | 26 | 147 | 4.8 | 16.1 | 0.00 | 0.00 | 0.00 | 46 | 1018.0 |
| 20260505184508 | 27 | 117 | 3.2 | 11.3 | 0.00 | 0.00 | 0.00 | 46 | 1018.1 |
| 20260505184003 | 26 | 96 | 3.2 | 9.7 | 0.00 | 0.00 | 0.00 | 48 | 1018.0 |
| 20260505183504 | 26 | 89 | 3.2 | 11.3 | 0.00 | 0.00 | 0.00 | 48 | 1018.0 |
| 20260505183017 | 26 | 350 | 3.2 | 11.3 | 0.00 | 0.00 | 0.00 | 46 | 1017.9 |
| 20260505182507 | 27 | 83 | 6.4 | 14.5 | 0.00 | 0.00 | 0.00 | 44 | 1017.9 |
| 20260505182007 | 27 | 169 | 4.8 | 14.5 | 0.00 | 0.00 | 0.00 | 46 | 1017.9 |
| 20260505181516 | 27 | 288 | 3.2 | 19.3 | 0.00 | 0.00 | 0.00 | 46 | 1017.9 |
| 20260505181007 | 26 | 132 | 4.8 | 19.3 | 0.00 | 0.00 | 0.00 | 49 | 1017.9 |
| 20260505180509 | 26 | 293 | 4.8 | 16.1 | 0.00 | 0.00 | 0.00 | 48 | 1018.0 |
| 20260505180046 | 26 | 125 | 1.6 | 16.1 | 0.00 | 0.00 | 0.00 | 48 | 1017.8 |
| 20260505175509 | 26 | 271 | 3.2 | 16.1 | 0.00 | 0.00 | 0.00 | 48 | 1017.8 |
| 20260505175015 | 26 | 65 | 3.2 | 12.9 | 0.00 | 0.00 | 0.00 | 46 | 1017.9 |
| 20260505174546 | 26 | 157 | 6.4 | 12.9 | 0.00 | 0.00 | 0.00 | 48 | 1017.8 |
| 20260505174004 | 26 | 171 | 1.6 | 12.9 | 0.00 | 0.00 | 0.00 | 48 | 1017.7 |
| 20260505173503 | 26 | 61 | 1.6 | 12.9 | 0.00 | 0.00 | 0.00 | 48 | 1017.7 |
| 20260505173017 | 26 | 101 | 1.6 | 9.7 | 0.00 | 0.00 | 0.00 | 48 | 1017.6 |
| 20260505172504 | 26 | 203 | 3.2 | 8.0 | 0.00 | 0.00 | 0.00 | 44 | 1017.9 |
| 20260505172003 | 26 | 333 | 1.6 | 9.7 | 0.00 | 0.00 | 0.00 | 47 | 1018.0 |
| 20260505171523 | 26 | 144 | 3.2 | 12.9 | 0.00 | 0.00 | 0.00 | 46 | 1018.1 |
| 20260505171007 | 26 | 30 | 3.2 | 12.9 | 0.00 | 0.00 | 0.00 | 47 | 1018.1 |
| 20260505170508 | 26 | 104 | 1.6 | 11.3 | 0.00 | 0.00 | 0.00 | 48 | 1018.0 |
| 20260505170022 | 26 | 223 | 3.2 | 11.3 | 0.00 | 0.00 | 0.00 | 45 | 1018.1 |
| 20260505165509 | 26 | 121 | 3.2 | 11.3 | 0.00 | 0.00 | 0.00 | 45 | 1018.1 |
| 20260505165009 | 26 | 304 | 3.2 | 12.9 | 0.00 | 0.00 | 0.00 | 48 | 1018.3 |
| 20260505164526 | 26 | 235 | 3.2 | 12.9 | 0.00 | 0.00 | 0.00 | 46 | 1018.4 |
| 20260505164009 | 26 | 144 | 4.8 | 14.5 | 0.00 | 0.00 | 0.00 | 46 | 1018.4 |
| 20260505163510 | 26 | 225 | 3.2 | 14.5 | 0.00 | 0.00 | 0.00 | 45 | 1018.5 |
| 20260505163013 | 26 | 191 | 1.6 | 11.3 | 0.00 | 0.00 | 0.00 | 48 | 1018.5 |
| 20260505162502 | 26 | 67 | 3.2 | 9.7 | 0.00 | 0.00 | 0.00 | 47 | 1018.6 |
| 20260505162006 | 26 | 120 | 1.6 | 14.5 | 0.00 | 0.00 | 0.00 | 48 | 1018.6 |
| 20260505161514 | 26 | 103 | 6.4 | 14.5 | 0.00 | 0.00 | 0.00 | 45 | 1018.8 |
| 20260505161007 | 26 | 94 | 6.4 | 12.9 | 0.00 | 0.00 | 0.00 | 45 | 1018.9 |
| 20260505160507 | 25 | 103 | 1.6 | 12.9 | 0.00 | 0.00 | 0.00 | 49 | 1019.0 |
| 20260505153029 | 25 | 136 | 1.6 | 9.7 | 0.00 | 0.00 | 0.00 | 53 | 1018.9 |
| 20260505152509 | 25 | 301 | 3.2 | 9.7 | 0.00 | 0.00 | 0.00 | 53 | 1018.9 |
| 20260505152007 | 25 | 101 | 3.2 | 6.4 | 0.00 | 0.00 | 0.00 | 52 | 1018.8 |
| 20260505151514 | 25 | 319 | 3.2 | 6.4 | 0.00 | 0.00 | 0.00 | 53 | 1018.8 |
| 20260505151009 | 25 | 192 | 1.6 | 9.7 | 0.00 | 0.00 | 0.00 | 54 | 1019.0 |
| 20260505150510 | 25 | 168 | 3.2 | 9.7 | 0.00 | 0.00 | 0.00 | 54 | 1019.0 |
| 20260505140507 | 23 | 283 | 3.2 | 12.9 | 0.00 | 0.00 | 0.00 | 58 | 1018.9 |
| 20260505125007 | 17 | 259 | 0.0 | 3.2 | 0.00 | 0.00 | 0.00 | 87 | 1018.7 |
| 20260505124519 | 17 | 252 | 0.0 | 1.6 | 0.00 | 0.00 | 0.00 | 89 | 1018.7 |
| 20260505124007 | 16 | 239 | 0.0 | 1.6 | 0.00 | 0.00 | 0.00 | 95 | 1018.7 |
| 20260505123507 | 15 | 240 | 0.0 | 0.0 | 0.00 | 0.00 | 0.00 | 95 | 1018.7 |
| 20260505123023 | 15 | 240 | 0.0 | 0.0 | 0.00 | 0.00 | 0.00 | 95 | 1018.6 |
| 20260505122506 | 13 | 240 | 0.0 | 0.0 | 0.00 | 0.00 | 0.00 | 95 | 1018.6 |
| 20260505122010 | 13 | 240 | 0.0 | 0.0 | 0.00 | 0.00 | 0.00 | 94 | 1018.6 |
| 20260505121526 | 13 | 243 | 0.0 | 0.0 | 0.00 | 0.00 | 0.00 | 94 | 1018.6 |
| 20260505121009 | 13 | 240 | 0.0 | 0.0 | 0.00 | 0.00 | 0.00 | 94 | 1018.5 |
| 20260505120508 | 12 | 242 | 0.0 | 0.0 | 0.00 | 0.00 | 0.00 | 94 | 1018.6 |
| 20260505120031 | 12 | 245 | 0.0 | 0.0 | 0.00 | 0.00 | 0.00 | 94 | 1018.5 |
| 20260505115508 | 12 | 240 | 0.0 | 0.0 | 0.00 | 0.00 | 0.00 | 94 | 1018.5 |
| 20260505115004 | 12 | 239 | 0.0 | 0.0 | 0.00 | 0.00 | 0.00 | 94 | 1018.4 |
| 20260505114517 | 11 | 239 | 0.0 | 0.0 | 0.00 | 0.00 | 0.00 | 94 | 1018.4 |
| 20260505114009 | 11 | 239 | 0.0 | 0.0 | 0.00 | 0.00 | 0.00 | 93 | 1018.4 |
| 20260505113507 | 11 | 239 | 0.0 | 0.0 | 0.00 | 0.00 | 0.00 | 93 | 1018.3 |
| 20260505113025 | 11 | 239 | 0.0 | 0.0 | 0.00 | 0.00 | 0.00 | 93 | 1018.3 |
| 20260505112509 | 11 | 238 | 0.0 | 0.0 | 0.00 | 0.00 | 0.00 | 93 | 1018.3 |
| 20260505112007 | 11 | 238 | 0.0 | 0.0 | 0.00 | 0.00 | 0.00 | 93 | 1018.2 |
| 20260505111526 | 11 | 238 | 0.0 | 0.0 | 0.00 | 0.00 | 0.00 | 93 | 1018.1 |
| 20260505111010 | 11 | 238 | 0.0 | 0.0 | 0.00 | 0.00 | 0.00 | 92 | 1018.1 |
| 20260505110510 | 10 | 238 | 0.0 | 0.0 | 0.00 | 0.00 | 0.00 | 92 | 1018.0 |
| 20260505102009 | 11 | 238 | 0.0 | 0.0 | 0.00 | 0.00 | 0.00 | 92 | 1017.5 |
| 20260505101532 | 11 | 238 | 0.0 | 0.0 | 0.00 | 0.00 | 0.00 | 92 | 1017.4 |
| 20260505101008 | 11 | 238 | 0.0 | 0.0 | 0.00 | 0.00 | 0.00 | 92 | 1017.5 |
| 20260505100508 | 11 | 238 | 0.0 | 0.0 | 0.00 | 0.00 | 0.00 | 91 | 1017.4 |
| 20260505100025 | 11 | 238 | 0.0 | 0.0 | 0.00 | 0.00 | 0.00 | 91 | 1017.4 |
| 20260505095508 | 11 | 238 | 0.0 | 0.0 | 0.00 | 0.00 | 0.00 | 92 | 1017.4 |
| 20260505095008 | 11 | 238 | 0.0 | 0.0 | 0.00 | 0.00 | 0.00 | 91 | 1017.4 |
| 20260505094529 | 11 | 238 | 0.0 | 0.0 | 0.00 | 0.00 | 0.00 | 91 | 1017.4 |
| 20260505094009 | 11 | 238 | 0.0 | 0.0 | 0.00 | 0.00 | 0.00 | 91 | 1017.4 |
| 20260505093509 | 11 | 238 | 0.0 | 0.0 | 0.00 | 0.00 | 0.00 | 91 | 1017.4 |
| 20260505093035 | 11 | 238 | 0.0 | 0.0 | 0.00 | 0.00 | 0.00 | 91 | 1017.4 |
| 20260505092509 | 11 | 238 | 0.0 | 0.0 | 0.00 | 0.00 | 0.00 | 91 | 1017.3 |
| 20260505092007 | 11 | 238 | 0.0 | 0.0 | 0.00 | 0.00 | 0.00 | 91 | 1017.3 |
| 20260505091525 | 11 | 238 | 0.0 | 0.0 | 0.00 | 0.00 | 0.00 | 91 | 1017.4 |
| 20260505091007 | 11 | 238 | 0.0 | 0.0 | 0.00 | 0.00 | 0.00 | 91 | 1017.3 |
| 20260505090509 | 11 | 238 | 0.0 | 0.0 | 0.00 | 0.00 | 0.00 | 91 | 1017.3 |
| 20260505090028 | 11 | 238 | 0.0 | 0.0 | 0.00 | 0.00 | 0.00 | 91 | 1017.3 |
| 20260505085511 | 11 | 238 | 0.0 | 0.0 | 0.00 | 0.00 | 0.00 | 91 | 1017.2 |
| 20260505085009 | 11 | 238 | 0.0 | 0.0 | 0.00 | 0.00 | 0.00 | 91 | 1017.1 |
| 20260505084531 | 11 | 238 | 0.0 | 0.0 | 0.00 | 0.00 | 0.00 | 91 | 1017.0 |
| 20260505084004 | 11 | 238 | 0.0 | 0.0 | 0.00 | 0.00 | 0.00 | 90 | 1017.0 |
| 20260505083506 | 11 | 238 | 0.0 | 0.0 | 0.00 | 0.00 | 0.00 | 90 | 1016.9 |
| 20260505083023 | 11 | 238 | 0.0 | 0.0 | 0.00 | 0.00 | 0.00 | 90 | 1016.8 |
| 20260505082505 | 11 | 238 | 0.0 | 0.0 | 0.00 | 0.00 | 0.00 | 90 | 1016.8 |
| 20260505082008 | 11 | 238 | 0.0 | 0.0 | 0.00 | 0.00 | 0.00 | 90 | 1016.7 |
| 20260505081520 | 11 | 238 | 0.0 | 0.0 | 0.00 | 0.00 | 0.00 | 90 | 1016.7 |
| 20260505081008 | 11 | 238 | 0.0 | 0.0 | 0.00 | 0.00 | 0.00 | 90 | 1016.6 |
| 20260505080507 | 11 | 238 | 0.0 | 0.0 | 0.00 | 0.00 | 0.00 | 90 | 1016.6 |
| 20260505080025 | 11 | 238 | 0.0 | 0.0 | 0.00 | 0.00 | 0.00 | 90 | 1016.6 |
| 20260505075509 | 11 | 238 | 0.0 | 0.0 | 0.00 | 0.00 | 0.00 | 90 | 1016.7 |
| 20260505075007 | 11 | 238 | 0.0 | 0.0 | 0.00 | 0.00 | 0.00 | 90 | 1016.7 |
| 20260505074528 | 11 | 238 | 0.0 | 0.0 | 0.00 | 0.00 | 0.00 | 89 | 1016.7 |
| 20260505074010 | 11 | 238 | 0.0 | 0.0 | 0.00 | 0.00 | 0.00 | 89 | 1016.6 |
| 20260505073510 | 11 | 238 | 0.0 | 0.0 | 0.00 | 0.00 | 0.00 | 89 | 1016.7 |
| 20260505073011 | 12 | 238 | 0.0 | 0.0 | 0.00 | 0.00 | 0.00 | 89 | 1016.7 |
| 20260505072507 | 12 | 238 | 0.0 | 0.0 | 0.00 | 0.00 | 0.00 | 89 | 1016.7 |
| 20260505072005 | 12 | 238 | 0.0 | 0.0 | 0.00 | 0.00 | 0.00 | 89 | 1016.6 |
| 20260505071514 | 12 | 238 | 0.0 | 0.0 | 0.00 | 0.00 | 0.00 | 89 | 1016.7 |
| 20260505071007 | 12 | 238 | 0.0 | 0.0 | 0.00 | 0.00 | 0.00 | 89 | 1016.6 |
| 20260505070511 | 12 | 238 | 0.0 | 0.0 | 0.00 | 0.00 | 0.00 | 88 | 1016.7 |
| 20260505070022 | 12 | 238 | 0.0 | 0.0 | 0.00 | 0.00 | 0.00 | 88 | 1016.7 |
| 20260505065509 | 12 | 238 | 0.0 | 0.0 | 0.00 | 0.00 | 0.00 | 88 | 1016.8 |
| 20260505065009 | 12 | 238 | 0.0 | 0.0 | 0.00 | 0.00 | 0.00 | 88 | 1016.7 |
| 20260505064524 | 12 | 238 | 0.0 | 0.0 | 0.00 | 0.00 | 0.00 | 88 | 1016.7 |
| 20260505064007 | 12 | 238 | 0.0 | 0.0 | 0.00 | 0.00 | 0.00 | 88 | 1016.8 |
| 20260505063508 | 12 | 238 | 0.0 | 0.0 | 0.00 | 0.00 | 0.00 | 88 | 1016.9 |
| 20260505063028 | 12 | 238 | 0.0 | 0.0 | 0.00 | 0.00 | 0.00 | 88 | 1017.0 |
| 20260505062517 | 12 | 238 | 0.0 | 0.0 | 0.00 | 0.00 | 0.00 | 87 | 1017.0 |
| 20260505062008 | 12 | 238 | 0.0 | 0.0 | 0.00 | 0.00 | 0.00 | 87 | 1017.1 |
| 20260505061515 | 12 | 238 | 0.0 | 0.0 | 0.00 | 0.00 | 0.00 | 87 | 1017.2 |
| 20260505061008 | 12 | 238 | 0.0 | 0.0 | 0.00 | 0.00 | 0.00 | 86 | 1017.3 |
| 20260505060508 | 12 | 238 | 0.0 | 0.0 | 0.00 | 0.00 | 0.00 | 86 | 1017.4 |
| 20260505060020 | 12 | 238 | 0.0 | 0.0 | 0.00 | 0.00 | 0.00 | 86 | 1017.5 |
| 20260505055509 | 12 | 238 | 0.0 | 0.0 | 0.00 | 0.00 | 0.00 | 85 | 1017.4 |
| 20260505055010 | 12 | 238 | 0.0 | 0.0 | 0.00 | 0.00 | 0.00 | 85 | 1017.5 |
| 20260505054526 | 12 | 238 | 0.0 | 0.0 | 0.00 | 0.00 | 0.00 | 85 | 1017.6 |
| 20260505054013 | 12 | 238 | 0.0 | 0.0 | 0.00 | 0.00 | 0.00 | 85 | 1017.6 |
| 20260505053508 | 12 | 238 | 0.0 | 0.0 | 0.00 | 0.00 | 0.00 | 84 | 1017.6 |
| 20260505053028 | 12 | 238 | 0.0 | 0.0 | 0.00 | 0.00 | 0.00 | 84 | 1017.7 |
| 20260505052508 | 13 | 238 | 0.0 | 0.0 | 0.00 | 0.00 | 0.00 | 84 | 1017.9 |
| 20260505052012 | 13 | 238 | 0.0 | 0.0 | 0.00 | 0.00 | 0.00 | 83 | 1017.9 |
| 20260505051552 | 13 | 238 | 0.0 | 0.0 | 0.00 | 0.00 | 0.00 | 83 | 1017.9 |
| 20260505051011 | 13 | 238 | 0.0 | 0.0 | 0.00 | 0.00 | 0.00 | 82 | 1017.9 |
| 20260505050509 | 13 | 238 | 0.0 | 0.0 | 0.00 | 0.00 | 0.00 | 82 | 1017.9 |
| 20260505041532 | 14 | 238 | 0.0 | 0.0 | 0.00 | 0.00 | 0.00 | 78 | 1018.0 |
| 20260505041008 | 14 | 238 | 0.0 | 0.0 | 0.00 | 0.00 | 0.00 | 77 | 1018.0 |
| 20260505040509 | 14 | 238 | 0.0 | 0.0 | 0.00 | 0.00 | 0.00 | 76 | 1018.0 |
| 20260505040018 | 15 | 238 | 0.0 | 0.0 | 0.00 | 0.00 | 0.00 | 76 | 1018.1 |
| 20260505035508 | 15 | 238 | 0.0 | 0.0 | 0.00 | 0.00 | 0.00 | 75 | 1018.1 |
| 20260505035008 | 15 | 238 | 0.0 | 0.0 | 0.00 | 0.00 | 0.00 | 75 | 1018.0 |
| 20260505034522 | 15 | 238 | 0.0 | 0.0 | 0.00 | 0.00 | 0.00 | 74 | 1018.0 |
| 20260505034007 | 15 | 238 | 0.0 | 0.0 | 0.00 | 0.00 | 0.00 | 74 | 1018.0 |
| 20260505033511 | 15 | 238 | 0.0 | 0.0 | 0.00 | 0.00 | 0.00 | 73 | 1017.9 |
| 20260505033029 | 15 | 238 | 0.0 | 0.0 | 0.00 | 0.00 | 0.00 | 73 | 1018.0 |
| 20260505032507 | 15 | 238 | 0.0 | 0.0 | 0.00 | 0.00 | 0.00 | 72 | 1018.0 |
| 20260505032011 | 15 | 238 | 0.0 | 0.0 | 0.00 | 0.00 | 0.00 | 71 | 1018.0 |
| 20260505031527 | 15 | 238 | 0.0 | 0.0 | 0.00 | 0.00 | 0.00 | 71 | 1018.1 |
| 20260505031007 | 15 | 238 | 0.0 | 0.0 | 0.00 | 0.00 | 0.00 | 70 | 1018.1 |
| 20260505030508 | 16 | 238 | 0.0 | 0.0 | 0.00 | 0.00 | 0.00 | 70 | 1018.1 |
| 20260505030031 | 16 | 238 | 0.0 | 0.0 | 0.00 | 0.00 | 0.00 | 69 | 1018.0 |
| 20260505025514 | 16 | 238 | 0.0 | 0.0 | 0.00 | 0.00 | 0.00 | 69 | 1018.0 |
| 20260505025011 | 16 | 238 | 0.0 | 0.0 | 0.00 | 0.00 | 0.00 | 68 | 1018.0 |
| 20260505024517 | 16 | 238 | 0.0 | 0.0 | 0.00 | 0.00 | 0.00 | 68 | 1018.0 |
| 20260505024007 | 16 | 238 | 0.0 | 0.0 | 0.00 | 0.00 | 0.00 | 68 | 1017.9 |
| 20260505023507 | 16 | 238 | 0.0 | 3.2 | 0.00 | 0.00 | 0.00 | 66 | 1017.9 |
| 20260505023023 | 16 | 230 | 0.0 | 3.2 | 0.00 | 0.00 | 0.00 | 66 | 1017.9 |
| 20260505022510 | 16 | 230 | 0.0 | 0.0 | 0.00 | 0.00 | 0.00 | 66 | 1017.8 |
| 20260505022010 | 16 | 230 | 0.0 | 0.0 | 0.00 | 0.00 | 0.00 | 64 | 1017.8 |
| 20260505021527 | 17 | 230 | 0.0 | 0.0 | 0.00 | 0.00 | 0.00 | 64 | 1017.9 |
| 20260505021010 | 17 | 230 | 0.0 | 0.0 | 0.00 | 0.00 | 0.00 | 64 | 1018.0 |
| 20260505020508 | 17 | 230 | 0.0 | 0.0 | 0.00 | 0.00 | 0.00 | 63 | 1017.8 |
| 20260505020028 | 17 | 230 | 0.0 | 0.0 | 0.00 | 0.00 | 0.00 | 62 | 1017.8 |
| 20260505015512 | 17 | 230 | 0.0 | 0.0 | 0.00 | 0.00 | 0.00 | 61 | 1017.9 |
| 20260505015012 | 17 | 230 | 0.0 | 3.2 | 0.00 | 0.00 | 0.00 | 61 | 1017.8 |
| 20260505014528 | 17 | 226 | 0.0 | 3.2 | 0.00 | 0.00 | 0.00 | 60 | 1017.7 |
| 20260505014017 | 17 | 360 | 0.0 | 0.0 | 0.00 | 0.00 | 0.00 | 60 | 1017.8 |
| 20260505013507 | 17 | 360 | 0.0 | 3.2 | 0.00 | 0.00 | 0.00 | 59 | 1017.8 |
| 20260505013020 | 17 | 150 | 0.0 | 3.2 | 0.00 | 0.00 | 0.00 | 60 | 1017.5 |
| 20260505012507 | 17 | 248 | 0.0 | 0.0 | 0.00 | 0.00 | 0.00 | 58 | 1017.6 |
| 20260505012009 | 17 | 360 | 0.0 | 0.0 | 0.00 | 0.00 | 0.00 | 58 | 1017.6 |
| 20260505011526 | 18 | 360 | 0.0 | 0.0 | 0.00 | 0.00 | 0.00 | 58 | 1017.5 |
| 20260505011010 | 18 | 360 | 0.0 | 3.2 | 0.00 | 0.00 | 0.00 | 56 | 1017.4 |
| 20260505010512 | 18 | 256 | 0.0 | 3.2 | 0.00 | 0.00 | 0.00 | 56 | 1017.4 |
| 20260505010027 | 18 | 240 | 0.0 | 3.2 | 0.00 | 0.00 | 0.00 | 55 | 1017.4 |
| 20260505005513 | 18 | 239 | 0.0 | 3.2 | 0.00 | 0.00 | 0.00 | 55 | 1017.5 |
| 20260505005012 | 18 | 138 | 0.0 | 3.2 | 0.00 | 0.00 | 0.00 | 54 | 1017.4 |
| 20260505004530 | 18 | 122 | 0.0 | 3.2 | 0.00 | 0.00 | 0.00 | 53 | 1017.4 |
| 20260505004008 | 18 | 136 | 0.0 | 3.2 | 0.00 | 0.00 | 0.00 | 52 | 1017.3 |
| 20260505003508 | 19 | 15 | 0.0 | 3.2 | 0.00 | 0.00 | 0.00 | 52 | 1017.3 |
| 20260505003027 | 19 | 22 | 0.0 | 3.2 | 0.00 | 0.00 | 0.00 | 52 | 1017.2 |
| 20260505002508 | 19 | 317 | 0.0 | 3.2 | 0.00 | 0.00 | 0.00 | 51 | 1017.2 |
| 20260505002010 | 19 | 246 | 0.0 | 3.2 | 0.00 | 0.00 | 0.00 | 51 | 1017.2 |
| 20260505001524 | 20 | 329 | 0.0 | 3.2 | 0.00 | 0.00 | 0.00 | 51 | 1017.2 |
| 20260505001008 | 20 | 98 | 0.0 | 3.2 | 0.00 | 0.00 | 0.00 | 50 | 1017.3 |
| 20260505000507 | 20 | 78 | 0.0 | 3.2 | 0.00 | 0.00 | 0.00 | 49 | 1017.2 |
| 20260505000025 | 20 | 248 | 0.0 | 3.2 | 0.00 | 0.00 | 0.00 | 48 | 1017.3 |
| 20260504235508 | 20 | 360 | 0.0 | 3.2 | 0.00 | 0.00 | 0.00 | 48 | 1017.2 |
| 20260504235008 | 20 | 360 | 1.6 | 3.2 | 0.00 | 0.00 | 0.00 | 47 | 1017.2 |
| 20260504234532 | 20 | 318 | 0.0 | 3.2 | 0.00 | 0.00 | 0.00 | 47 | 1017.1 |
| 20260504234010 | 20 | 186 | 0.0 | 4.8 | 0.00 | 0.00 | 0.00 | 46 | 1017.0 |
| 20260504233506 | 21 | 58 | 0.0 | 4.8 | 0.00 | 0.00 | 0.00 | 44 | 1017.2 |
| 20260504233016 | 21 | 308 | 1.6 | 3.2 | 0.00 | 0.00 | 0.00 | 45 | 1017.2 |
| 20260504232507 | 21 | 106 | 0.0 | 3.2 | 0.00 | 0.00 | 0.00 | 46 | 1017.1 |
| 20260504232008 | 21 | 128 | 1.6 | 9.7 | 0.00 | 0.00 | 0.00 | 46 | 1017.1 |
| 20260504231524 | 21 | 124 | 0.0 | 9.7 | 0.00 | 0.00 | 0.00 | 46 | 1017.1 |
| 20260504231008 | 21 | 78 | 1.6 | 3.2 | 0.00 | 0.00 | 0.00 | 46 | 1017.0 |